Карточка аэропорта USPP

Внимание!
Информация на этой странице в стадии наполнения.
Если вы не увидели какой-то информации, или заметили неточность - пожалуйста сообщите нам!
Спасибо!
Команда RU-STAFF
Название аэропортаБольшое Савино
Название аэропорта (англ.)Bolshoe Savino
Превышение404 ft. (123.1 m.)
Координаты57°55.866', 56°1.6019999999999'
Высота перехода3700ft
Эшелон переходаQNH>1013:FL50; 1013>QNH>977:FL60; 977>QNH:FL70;
Коды ответчика5610-5617
Зона ОрВДЕкатеринбург РПИ (USSV)
Данные METARUSPP 280630Z 22004MPS 9999 -SN BKN026 M06/M11 Q1032 R21/490339 NOSIG RMK QFE763
Проноз погоды (TAF)USPP 280455Z 2806/2906 23005G15MPS 6000 -SN BKN016 TEMPO 2806/2810 1200 FZRA SN BKN007 BECMG 2810/2812 9999 NSW
NOTAMshow/hide NOTAM
AWOS   TABLE

Информация о ВПП

ВПП Длина ВПП (м.) Покрытие Курс ВПП Частота ILS
213204Железобетон211109.9
033204Железобетон31 

Диспетчерские позиции

Позывной Наименование органа УВД Частота
USPP_APPПермь-Подход127.100
USPP_R_APPПермь-Круг121.700
USPP_TWRПермь-Старт124.000



Спутниковое изображение